TimeCDT,TemperatureF,Dew PointF,Humidity,Sea Level PressureIn,VisibilityMPH,Wind Direction,Wind SpeedMPH,Gust SpeedMPH,PrecipitationIn,Events,Conditions,WindDirDegrees,DateUTC
12:53 AM,53.1,48.9,86,30.19,10.0,Calm,Calm,-,N/A,,Clear,0,2013-07-01 05:53:00
1:53 AM,50.0,48.0,93,30.20,10.0,Calm,Calm,-,N/A,,Clear,0,2013-07-01 06:53:00
2:53 AM,48.9,46.9,93,30.20,10.0,Calm,Calm,-,N/A,,Clear,0,2013-07-01 07:53:00
3:53 AM,48.0,46.0,93,30.21,10.0,WNW,3.5,-,N/A,,Clear,290,2013-07-01 08:53:00
4:53 AM,48.9,46.0,90,30.22,9.0,Calm,Calm,-,N/A,,Clear,0,2013-07-01 09:53:00
5:53 AM,46.9,45.0,93,30.23,8.0,NW,4.6,-,N/A,,Clear,310,2013-07-01 10:53:00
6:53 AM,48.9,46.9,93,30.24,7.0,NW,4.6,-,N/A,,Clear,320,2013-07-01 11:53:00
7:53 AM,54.0,51.1,90,30.25,7.0,NW,4.6,-,N/A,,Clear,320,2013-07-01 12:53:00
8:53 AM,61.0,54.0,78,30.26,8.0,NNW,5.8,-,N/A,,Clear,330,2013-07-01 13:53:00
9:53 AM,69.1,55.0,61,30.26,9.0,NNW,4.6,-,N/A,,Clear,340,2013-07-01 14:53:00
10:53 AM,73.9,48.0,40,30.25,10.0,ENE,11.5,-,N/A,,Clear,60,2013-07-01 15:53:00
11:53 AM,75.0,46.9,37,30.25,10.0,NE,3.5,-,N/A,,Clear,40,2013-07-01 16:53:00
12:53 PM,77.0,48.9,37,30.24,10.0,ENE,9.2,-,N/A,,Clear,60,2013-07-01 17:53:00
1:53 PM,77.0,48.0,36,30.23,10.0,ENE,8.1,-,N/A,,Mostly Cloudy,60,2013-07-01 18:53:00
2:53 PM,79.0,48.0,34,30.22,10.0,NE,5.8,-,N/A,,Scattered Clouds,50,2013-07-01 19:53:00
3:53 PM,79.0,50.0,36,30.21,10.0,NE,8.1,-,N/A,,Scattered Clouds,50,2013-07-01 20:53:00
4:53 PM,79.0,46.9,32,30.20,10.0,East,5.8,-,N/A,,Scattered Clouds,80,2013-07-01 21:53:00
5:53 PM,78.1,48.9,36,30.19,10.0,East,6.9,-,N/A,,Scattered Clouds,80,2013-07-01 22:53:00
6:53 PM,77.0,50.0,39,30.19,10.0,ENE,10.4,-,N/A,,Scattered Clouds,60,2013-07-01 23:53:00
7:53 PM,75.0,50.0,41,30.19,10.0,East,4.6,-,N/A,,Clear,80,2013-07-02 00:53:00
8:53 PM,72.0,53.1,51,30.19,8.0,Calm,Calm,-,N/A,,Clear,0,2013-07-02 01:53:00
9:53 PM,61.0,55.0,81,30.19,10.0,Calm,Calm,-,N/A,,Clear,0,2013-07-02 02:53:00
10:53 PM,57.0,53.1,87,30.19,10.0,Calm,Calm,-,N/A,,Clear,0,2013-07-02 03:53:00
11:53 PM,55.0,51.1,86,30.20,10.0,SW,3.5,-,N/A,,Clear,220,2013-07-02 04:53:00